Regional Weather Roundup
Issued by NWS Memphis, TN

Home | Current Version | Previous Version | Text Only | Print | Product List | Glossary On
Versions: 1 2 3 4 5 6 7 8 9 10 11 12 13 14 15 16 17 18 19 20 21 22 23 24 25 26 27 28 29 30 31 32 33 34 35 36 37 38 39 40 41 42 43 44 45 46 47 48 49 50
505
ASUS44 KMEG 230010
RWRMEG
MEMPHIS CWA HOURLY WEATHER ROUNDUP
NATIONAL WEATHER SERVICE MEMPHIS TN
700 PM CDT MON MAY 22 2017

...WEST TENNESSEE...

CITY           SKY/WX    TMP DP  RH WIND       PRES   REMARKS
MEMPHIS INTL   CLOUDY    69  58  67 SW3       29.96S
6HR MIN TEMP:  69; 6HR MAX TEMP:  74;

NWS MEMPHIS      N/A     69 N/A N/A MISG        N/A
JACKSON        CLOUDY    71  58  63 CALM      29.95F
6HR MIN TEMP:  70; 6HR MAX TEMP:  76;

COVINGTON      SUNNY     70  59  68 CALM      29.96R
BOLIVAR        CLOUDY    68  63  83 CALM      29.95R
SELMER         CLOUDY    68  63  83 CALM      29.95S
SAVANNAH       MOCLDY    70  64  83 CALM      29.94F
DYERSBURG      CLOUDY    71  54  54 CALM      29.97S
6HR MIN TEMP:  70; 6HR MAX TEMP:  75;

UNION CITY     SUNNY     72  52  49 CALM      29.95F
PARIS          SUNNY     68  55  64 NE3       29.95F
HUNTINGDON     SUNNY     68  57  68 CALM      29.95F


...EASTERN ARKANSAS...

CITY           SKY/WX    TMP DP  RH WIND       PRES   REMARKS
JONESBORO      PTSUNNY   71  51  49 S7        29.96S
6HR MIN TEMP:  71; 6HR MAX TEMP:  76;

WEST MEMPHIS   CLOUDY    69  58  67 S3        29.95S
6HR MIN TEMP:  68; 6HR MAX TEMP:  73;

BATESVILLE     CLOUDY    72  52  49 SE8       29.97S
6HR MIN TEMP:  72; 6HR MAX TEMP:  75;

NEWPORT        CLOUDY    69  54  58 S9        29.97S
6HR MIN TEMP:  69; 6HR MAX TEMP:  74;

WALNUT RIDGE   CLOUDY    73  48  40 CALM      29.96R
6HR MIN TEMP:  72; 6HR MAX TEMP:  75;

BLYTHEVILLE    CLOUDY    71  54  54 E3        29.96F
6HR MIN TEMP:  71; 6HR MAX TEMP:  74;

SEARCY         CLOUDY    67  58  72 CALM      29.98F
6HR MIN TEMP:  67; 6HR MAX TEMP:  75;

STUTTGART      CLOUDY    70  46  43 W3        29.97S
6HR MIN TEMP:  68; 6HR MAX TEMP:  70;

PINE BLUFF     CLOUDY    66  57  72 CALM      29.97S
6HR MIN TEMP:  66; 6HR MAX TEMP:  68; 6HR PCP: TRACE;

MONTICELLO     CLOUDY    63  61  93 NE5       29.95F
6HR MIN TEMP:  63; 6HR MAX TEMP:  65; 6HR PCP:  0.07;



...NORTH MISSISSIPPI...

CITY           SKY/WX    TMP DP  RH WIND       PRES   REMARKS
TUPELO         CLOUDY    72  61  68 W5        29.95F
6HR MIN TEMP:  72; 6HR MAX TEMP:  76;

OXFORD         CLOUDY    66  63  88 E3        29.96F
BATESVILLE     CLOUDY    68  64  88 CALM      29.95F
OLIVE BRANCH   CLOUDY   N/A N/A N/A CALM      29.95F
TUNICA         CLOUDY    66  61  82 N5        29.96F
CLARKSDALE       N/A     70  63  78 MISG      29.93F
CORINTH        CLOUDY    70  63  78 CALM      29.95S
GREENWOOD      RAIN      67  65  93 E5        29.92F
6HR MIN TEMP:  67; 6HR MAX TEMP:  71; 6HR PCP:  0.16;

COLUMBUS       DRIZZLE   70  70 100 CALM      29.93S
6HR MIN TEMP:  71; 6HR MAX TEMP:  76; 6HR PCP:  0.07;

STARKVILLE     HVY RAIN  68  66  94 CALM      29.97R


...SOUTHEAST MISSOURI...

CITY           SKY/WX    TMP DP  RH WIND       PRES   REMARKS
KENNETT        CLOUDY    72  54  53 S8        29.94F
MALDEN         CLOUDY    75  43  31 CALM      29.96F
WEST PLAINS    MOSUNNY   70  50  49 SE3       29.97F
6HR MIN TEMP:  69; 6HR MAX TEMP:  73;

POPLAR BLUFF   CLOUDY    75  48  38 W5        29.95F
6HR MIN TEMP:  71; 6HR MAX TEMP:  77;

CAPE GIRARDEAU CLOUDY    69  49  48 E6        29.96F
6HR MIN TEMP:  69; 6HR MAX TEMP:  75;



...NORTHWEST ALABAMA...

CITY           SKY/WX    TMP DP  RH WIND       PRES   REMARKS
MUSCLE SHOALS  CLOUDY    73  59  61 E3        29.95F
6HR MIN TEMP:  73; 6HR MAX TEMP:  79;



...MIDDLE TENNESSEE...

CITY           SKY/WX    TMP DP  RH WIND       PRES   REMARKS
NASHVILLE      CLOUDY    70  51  51 E7        29.98F
6HR MIN TEMP:  70; 6HR MAX TEMP:  76;

CLARKSVILLE    CLOUDY    69  49  48 NE6       29.97F
6HR MIN TEMP:  69; 6HR MAX TEMP:  73;

COLUMBIA       CLEAR     72  55  56 NE3       29.94F


...WESTERN KENTUCKY...

CITY           SKY/WX    TMP DP  RH WIND       PRES   REMARKS
PADUCAH        CLOUDY    70  50  49 S3        29.96F
6HR MIN TEMP:  70; 6HR MAX TEMP:  76;

FORT CAMPBELL  CLOUDY    69  49  48 E6        29.96F
6HR MIN TEMP:  69; 6HR MAX TEMP:  73;



...CENTRAL ARKANSAS...

CITY           SKY/WX    TMP DP  RH WIND       PRES   REMARKS
LITTLE ROCK    CLOUDY    67  55  65 CALM      29.97F
6HR MIN TEMP:  67; 6HR MAX TEMP:  70;



SKY/WX REPORTED AS FAIR MEANS FEW OR NO CLOUDS BELOW
12 THOUSAND FEET.





USA.gov is the U.S. government's official web portal to all federal, state and local government web resources and services.